MAH27M LHBP-EDDH

Flight info

Callsign MAH27M
Flight time 1h 25m
Altitude 34000
Route BADOV DCT MAVOR DCT KATQA DCT ODLIV DCT HDO M748 RENDO DCT BOLBO M748 ESIKA DCT SOGMA M748 RARUP RARUP3S
Aircraft T154/M-SDGRWY/S

Departure

Time 2026-04-25 20:12
Airport Budapest Liszt Ferenc International Airport (LHBP)

Arrival

Time 2026-04-25 21:37
Airport Hamburg Helmut Schmidt Airport (EDDH)
Time Latitude Longitude Altitude Speed Heading
2026-04-25 19:55 47.43417 19.26118 478 ft 0 kts 131°
2026-04-25 20:04 47.43422 19.26111 478 ft 2 kts 131°
2026-04-25 20:04 47.43431 19.26094 478 ft 2 kts 131°
2026-04-25 20:04 47.43444 19.26074 478 ft 3 kts 137°
2026-04-25 20:04 47.43464 19.26061 478 ft 2 kts 177°
2026-04-25 20:05 47.43483 19.26068 478 ft 3 kts 196°
2026-04-25 20:05 47.43502 19.26079 479 ft 2 kts 220°
2026-04-25 20:05 47.43510 19.26092 479 ft 1 kts 225°
2026-04-25 20:05 47.43515 19.26098 479 ft 0 kts 221°
2026-04-25 20:08 47.43511 19.26092 479 ft 5 kts 221°
2026-04-25 20:08 47.43451 19.26013 477 ft 12 kts 221°
2026-04-25 20:08 47.43421 19.25934 476 ft 8 kts 305°
2026-04-25 20:08 47.43467 19.25858 476 ft 10 kts 308°
2026-04-25 20:09 47.43509 19.25761 476 ft 12 kts 312°
2026-04-25 20:09 47.43539 19.25656 475 ft 12 kts 238°
2026-04-25 20:09 47.43469 19.25554 472 ft 16 kts 221°
2026-04-25 20:09 47.43375 19.25428 467 ft 20 kts 221°
2026-04-25 20:10 47.43303 19.25332 464 ft 22 kts 222°
2026-04-25 20:10 47.43135 19.25106 455 ft 18 kts 222°
2026-04-25 20:10 47.43077 19.24993 452 ft 13 kts 276°
2026-04-25 20:10 47.43119 19.24907 450 ft 0 kts 313°
2026-04-25 20:11 47.43142 19.24870 450 ft 26 kts 313°
2026-04-25 20:11 47.43493 19.24306 442 ft 121 kts 312°
2026-04-25 20:11 47.44248 19.23081 485 ft 191 kts 312°
2026-04-25 20:12 47.45225 19.21476 889 ft 224 kts 311°
2026-04-25 20:12 47.46311 19.19695 1696 ft 239 kts 312°
2026-04-25 20:12 47.47432 19.17926 2856 ft 239 kts 311°
2026-04-25 20:12 47.48199 19.16692 3580 ft 251 kts 312°
2026-04-25 20:13 47.49948 19.14435 5439 ft 260 kts 321°
2026-04-25 20:13 47.51360 19.12837 6839 ft 253 kts 320°
2026-04-25 20:13 47.52642 19.11328 7768 ft 232 kts 319°
2026-04-25 20:13 47.53884 19.09826 8401 ft 225 kts 319°
2026-04-25 20:14 47.55070 19.08380 8960 ft 221 kts 319°
2026-04-25 20:14 47.56281 19.06899 9432 ft 235 kts 319°
2026-04-25 20:14 47.57629 19.05248 9836 ft 266 kts 319°
2026-04-25 20:14 47.59079 19.03476 10515 ft 274 kts 319°
2026-04-25 20:15 47.60551 19.01675 11235 ft 278 kts 319°
2026-04-25 20:15 47.62065 18.99820 11995 ft 281 kts 319°
2026-04-25 20:15 47.63612 18.98071 12729 ft 285 kts 330°
2026-04-25 20:15 47.65552 18.97300 13380 ft 298 kts 356°
2026-04-25 20:16 47.67648 18.97969 14046 ft 314 kts 22°
2026-04-25 20:16 47.69384 18.99961 14703 ft 327 kts 45°
2026-04-25 20:16 47.70805 19.02635 15461 ft 329 kts 46°
2026-04-25 20:16 47.72317 19.05204 16200 ft 328 kts 41°
2026-04-25 20:17 47.73924 19.07585 16912 ft 328 kts 39°
2026-04-25 20:17 47.75577 19.09928 17606 ft 329 kts 38°
2026-04-25 20:17 47.77286 19.12229 18279 ft 326 kts 28°
2026-04-25 20:17 47.79320 19.13606 18877 ft 315 kts
2026-04-25 20:18 47.81452 19.13579 19477 ft 303 kts 339°
2026-04-25 20:18 47.83287 19.12231 20059 ft 295 kts 315°
2026-04-25 20:18 47.84653 19.09969 20729 ft 293 kts 305°
2026-04-25 20:18 47.85937 19.07583 21437 ft 293 kts 308°
2026-04-25 20:19 47.87290 19.05313 22120 ft 294 kts 309°
2026-04-25 20:19 47.88681 19.03069 22793 ft 298 kts 310°
2026-04-25 20:19 47.90113 19.00766 23509 ft 302 kts 310°
2026-04-25 20:19 47.91548 18.98467 24253 ft 305 kts 310°
2026-04-25 20:20 47.92997 18.96150 25027 ft 307 kts 309°
2026-04-25 20:20 47.94456 18.93820 25799 ft 308 kts 310°
2026-04-25 20:20 47.95919 18.91483 26573 ft 308 kts 309°
2026-04-25 20:20 47.97371 18.89160 27336 ft 309 kts 310°
2026-04-25 20:21 47.98843 18.86801 27908 ft 316 kts 310°
2026-04-25 20:21 48.00372 18.84347 28305 ft 326 kts 310°
2026-04-25 20:21 48.01939 18.81831 28814 ft 334 kts 310°
2026-04-25 20:21 48.03544 18.79285 29407 ft 338 kts 310°
2026-04-25 20:22 48.05197 18.76723 30048 ft 342 kts 311°
2026-04-25 20:22 48.06293 18.75024 30479 ft 343 kts 311°
2026-04-25 20:22 48.08527 18.71541 31302 ft 346 kts 311°
2026-04-25 20:22 48.10168 18.68975 31909 ft 347 kts 311°
2026-04-25 20:23 48.11654 18.66663 32370 ft 351 kts 311°
2026-04-25 20:23 48.13032 18.64528 32788 ft 353 kts 311°
2026-04-25 20:23 48.14628 18.62042 33280 ft 356 kts 311°
2026-04-25 20:23 48.16551 18.59027 33883 ft 359 kts 311°
2026-04-25 20:24 48.18418 18.56093 34457 ft 361 kts 312°
2026-04-25 20:24 48.20186 18.53310 34721 ft 371 kts 311°
2026-04-25 20:24 48.21979 18.50476 34648 ft 388 kts 312°
2026-04-25 20:24 48.23910 18.47427 34535 ft 407 kts 312°
2026-04-25 20:25 48.25876 18.44320 34525 ft 421 kts 312°
2026-04-25 20:25 48.27919 18.41090 34605 ft 432 kts 312°
2026-04-25 20:25 48.30040 18.37731 34574 ft 444 kts 312°
2026-04-25 20:25 48.32175 18.34347 34370 ft 451 kts 311°
2026-04-25 20:26 48.36373 18.27652 34394 ft 446 kts 311°
2026-04-25 20:26 48.40610 18.20892 34412 ft 440 kts 311°
2026-04-25 20:27 48.44719 18.14326 34422 ft 436 kts 311°
2026-04-25 20:27 48.48835 18.07733 34430 ft 433 kts 311°
2026-04-25 20:28 48.52921 18.01172 34435 ft 431 kts 311°
2026-04-25 20:28 48.57046 17.94531 34442 ft 429 kts 311°
2026-04-25 20:29 48.61106 17.87979 34450 ft 428 kts 311°
2026-04-25 20:29 48.65152 17.81433 34451 ft 426 kts 311°
2026-04-25 20:30 48.69184 17.74893 34454 ft 425 kts 311°
2026-04-25 20:30 48.73097 17.68531 34456 ft 424 kts 311°
2026-04-25 20:31 48.77184 17.61868 34459 ft 424 kts 311°
2026-04-25 20:31 48.81202 17.55301 34463 ft 423 kts 311°
2026-04-25 20:32 48.85338 17.48944 34462 ft 423 kts 314°
2026-04-25 20:32 48.89582 17.42724 34461 ft 422 kts 314°
2026-04-25 20:33 48.93755 17.36524 34461 ft 421 kts 314°
2026-04-25 20:33 48.96907 17.31812 34438 ft 422 kts 313°
2026-04-25 20:34 49.01843 17.24408 34452 ft 421 kts 313°
2026-04-25 20:34 49.05964 17.18044 34455 ft 421 kts 312°
2026-04-25 20:35 49.10068 17.11635 34456 ft 420 kts 313°
2026-04-25 20:35 49.14100 17.05391 34432 ft 421 kts 313°
2026-04-25 20:36 49.18224 16.98964 34450 ft 421 kts 313°
2026-04-25 20:36 49.22142 16.92825 34453 ft 421 kts 313°
2026-04-25 20:37 49.26263 16.86350 34467 ft 420 kts 313°
2026-04-25 20:37 49.30316 16.79967 34475 ft 420 kts 313°
2026-04-25 20:38 49.34384 16.73542 34472 ft 419 kts 313°
2026-04-25 20:38 49.38467 16.67078 34474 ft 419 kts 313°
2026-04-25 20:39 49.42513 16.60656 34476 ft 419 kts 313°
2026-04-25 20:39 49.45902 16.55264 34476 ft 419 kts 313°
2026-04-25 20:40 49.50629 16.47724 34477 ft 419 kts 313°
2026-04-25 20:40 49.54674 16.41255 34483 ft 418 kts 313°
2026-04-25 20:41 49.58704 16.34794 34483 ft 418 kts 312°
2026-04-25 20:41 49.62643 16.28432 34471 ft 418 kts 312°
2026-04-25 20:42 49.66657 16.21951 34480 ft 418 kts 312°
2026-04-25 20:42 49.70665 16.15472 34488 ft 418 kts 313°
2026-04-25 20:43 49.74680 16.08968 34489 ft 422 kts 313°
2026-04-25 20:43 49.78600 16.02600 34503 ft 426 kts 313°
2026-04-25 20:44 49.82739 15.95861 34503 ft 429 kts 313°
2026-04-25 20:44 49.86887 15.89089 34506 ft 432 kts 313°
2026-04-25 20:45 49.91005 15.82351 34501 ft 434 kts 313°
2026-04-25 20:45 49.95171 15.75514 34505 ft 436 kts 313°
2026-04-25 20:46 49.99339 15.68655 34501 ft 437 kts 313°
2026-04-25 20:46 50.03510 15.61773 34500 ft 437 kts 313°
2026-04-25 20:47 50.07666 15.54897 34503 ft 438 kts 313°
2026-04-25 20:47 50.11647 15.48304 34471 ft 439 kts 314°
2026-04-25 20:48 50.15902 15.41282 34485 ft 439 kts 313°
2026-04-25 20:48 50.20070 15.34337 34498 ft 439 kts 313°
2026-04-25 20:49 50.24135 15.27508 34490 ft 440 kts 313°
2026-04-25 20:49 50.28286 15.20537 34503 ft 440 kts 313°
2026-04-25 20:50 50.32470 15.13499 34510 ft 439 kts 313°
2026-04-25 20:50 50.36601 15.06531 34511 ft 439 kts 313°
2026-04-25 20:51 50.40752 14.99512 34508 ft 438 kts 313°
2026-04-25 20:51 50.44877 14.92518 34512 ft 438 kts 313°
2026-04-25 20:52 50.48319 14.86733 34511 ft 437 kts 316°
2026-04-25 20:52 50.54073 14.80233 34528 ft 436 kts 324°
2026-04-25 20:53 50.59028 14.74772 34526 ft 436 kts 323°
2026-04-25 20:53 50.63961 14.69290 34527 ft 435 kts 324°
2026-04-25 20:54 50.68897 14.63788 34527 ft 434 kts 323°
2026-04-25 20:54 50.73774 14.58336 34524 ft 433 kts 323°
2026-04-25 20:55 50.78708 14.52806 34522 ft 432 kts 324°
2026-04-25 20:55 50.83570 14.47343 34525 ft 431 kts 323°
2026-04-25 20:56 50.88447 14.41849 34519 ft 430 kts 323°
2026-04-25 20:56 50.93259 14.36366 34521 ft 428 kts 321°
2026-04-25 20:57 50.97677 14.30277 34495 ft 428 kts 317°
2026-04-25 20:57 51.02134 14.24077 34504 ft 427 kts 318°
2026-04-25 20:58 51.06597 14.17916 34513 ft 427 kts 318°
2026-04-25 20:58 51.11017 14.11807 34486 ft 427 kts 319°
2026-04-25 20:59 51.15414 14.05767 34484 ft 427 kts 319°
2026-04-25 20:59 51.19883 13.99569 34505 ft 426 kts 319°
2026-04-25 21:00 51.23589 13.94410 34514 ft 427 kts 318°
2026-04-25 21:01 51.31014 13.84035 34522 ft 426 kts 319°
2026-04-25 21:01 51.35465 13.77794 34525 ft 425 kts 319°
2026-04-25 21:02 51.39828 13.71659 34526 ft 424 kts 319°
2026-04-25 21:02 51.44227 13.65456 34525 ft 423 kts 319°
2026-04-25 21:03 51.48630 13.59230 34527 ft 423 kts 319°
2026-04-25 21:03 51.53025 13.53001 34530 ft 422 kts 319°
2026-04-25 21:04 51.57402 13.46779 34528 ft 421 kts 319°
2026-04-25 21:04 51.61798 13.40515 34527 ft 420 kts 319°
2026-04-25 21:05 51.66097 13.34370 34522 ft 419 kts 318°
2026-04-25 21:05 51.70367 13.28221 34509 ft 419 kts 318°
2026-04-25 21:06 51.74673 13.22027 34520 ft 418 kts 318°
2026-04-25 21:06 51.79023 13.15756 34518 ft 417 kts 319°
2026-04-25 21:07 51.83332 13.09532 34518 ft 417 kts 319°
2026-04-25 21:07 51.87645 13.03287 34516 ft 416 kts 319°
2026-04-25 21:08 51.91934 12.97061 34526 ft 415 kts 319°
2026-04-25 21:08 51.96196 12.90853 34517 ft 415 kts 319°
2026-04-25 21:09 52.02586 12.81518 34522 ft 414 kts 319°
2026-04-25 21:09 52.06876 12.75231 34525 ft 414 kts 319°
2026-04-25 21:10 52.11093 12.69034 34497 ft 414 kts 319°
2026-04-25 21:10 52.15391 12.62752 34504 ft 415 kts 319°
2026-04-25 21:11 52.19682 12.56421 34519 ft 415 kts 319°
2026-04-25 21:11 52.23941 12.50112 34519 ft 415 kts 319°
2026-04-25 21:12 52.28249 12.43713 34525 ft 416 kts 319°
2026-04-25 21:12 52.31796 12.38428 34527 ft 416 kts 319°
2026-04-25 21:13 52.36747 12.31018 34518 ft 416 kts 318°
2026-04-25 21:13 52.40995 12.24630 34525 ft 416 kts 319°
2026-04-25 21:14 52.45248 12.18239 34532 ft 416 kts 318°
2026-04-25 21:14 52.49519 12.11805 34535 ft 417 kts 319°
2026-04-25 21:15 52.53784 12.05363 34538 ft 417 kts 319°
2026-04-25 21:15 52.58034 11.98927 34539 ft 417 kts 319°
2026-04-25 21:16 52.62281 11.92475 34544 ft 416 kts 319°
2026-04-25 21:16 52.66709 11.86390 34544 ft 415 kts 324°
2026-04-25 21:17 52.71164 11.80537 34475 ft 417 kts 314°
2026-04-25 21:17 52.72882 11.76662 34085 ft 413 kts 306°
2026-04-25 21:17 52.74318 11.72658 33445 ft 412 kts 304°
2026-04-25 21:18 52.75749 11.68553 32577 ft 414 kts 304°
2026-04-25 21:18 52.77168 11.64455 31749 ft 414 kts 303°
2026-04-25 21:18 52.78577 11.60345 30970 ft 413 kts 303°
2026-04-25 21:18 52.79962 11.56283 30459 ft 406 kts 303°
2026-04-25 21:19 52.81311 11.52305 30064 ft 398 kts 303°
2026-04-25 21:19 52.82651 11.48349 29648 ft 391 kts 303°
2026-04-25 21:19 52.83963 11.44471 29237 ft 384 kts 303°
2026-04-25 21:19 52.85267 11.40607 28829 ft 377 kts 303°
2026-04-25 21:20 52.86518 11.36900 28340 ft 372 kts 303°
2026-04-25 21:20 52.87366 11.34386 27986 ft 370 kts 303°
2026-04-25 21:20 52.88855 11.29947 27084 ft 371 kts 303°
2026-04-25 21:20 52.90210 11.25900 26234 ft 372 kts 303°
2026-04-25 21:21 52.91452 11.22191 25499 ft 370 kts 303°
2026-04-25 21:21 52.91671 11.21539 25373 ft 369 kts 303°
2026-04-25 21:21 52.92820 11.18106 24744 ft 366 kts 303°
2026-04-25 21:21 52.93684 11.15520 24288 ft 363 kts 303°
2026-04-25 21:22 52.94897 11.11885 23664 ft 358 kts 303°
2026-04-25 21:22 52.96100 11.08276 23061 ft 353 kts 303°
2026-04-25 21:22 52.97269 11.04765 22461 ft 347 kts 303°
2026-04-25 21:22 52.98436 11.01257 21839 ft 343 kts 303°
2026-04-25 21:23 52.99577 10.97823 21203 ft 338 kts 303°
2026-04-25 21:23 53.00710 10.94410 20555 ft 334 kts 303°
2026-04-25 21:23 53.01820 10.91057 19901 ft 330 kts 302°
2026-04-25 21:23 53.02918 10.87737 19237 ft 326 kts 302°
2026-04-25 21:24 53.03994 10.84483 18561 ft 322 kts 302°
2026-04-25 21:24 53.05057 10.81262 17867 ft 319 kts 303°
2026-04-25 21:24 53.06124 10.78026 17157 ft 316 kts 302°
2026-04-25 21:24 53.07165 10.74859 16450 ft 314 kts 303°
2026-04-25 21:25 53.08215 10.71666 15661 ft 307 kts 303°
2026-04-25 21:25 53.09203 10.68644 14586 ft 295 kts 303°
2026-04-25 21:25 53.10157 10.65731 13494 ft 287 kts 303°
2026-04-25 21:25 53.11090 10.62925 12332 ft 283 kts 303°
2026-04-25 21:26 53.12032 10.60108 10921 ft 285 kts 302°
2026-04-25 21:26 53.12971 10.57264 9420 ft 287 kts 302°
2026-04-25 21:26 53.13915 10.54381 7938 ft 285 kts 302°
2026-04-25 21:26 53.14827 10.51581 6962 ft 269 kts 302°
2026-04-25 21:27 53.15694 10.48911 6359 ft 257 kts 302°
2026-04-25 21:27 53.16528 10.46346 5933 ft 250 kts 302°
2026-04-25 21:27 53.17353 10.43814 5468 ft 246 kts 303°
2026-04-25 21:27 53.18165 10.41315 5038 ft 241 kts 303°
2026-04-25 21:28 53.18933 10.38944 4756 ft 232 kts 303°
2026-04-25 21:28 53.19787 10.36733 4391 ft 222 kts 319°
2026-04-25 21:28 53.21056 10.35377 4067 ft 214 kts 335°
2026-04-25 21:28 53.22407 10.34344 3743 ft 212 kts 335°
2026-04-25 21:29 53.23730 10.33246 3580 ft 234 kts 333°
2026-04-25 21:29 53.25284 10.31919 3627 ft 253 kts 333°
2026-04-25 21:29 53.26796 10.30632 3644 ft 241 kts 334°
2026-04-25 21:29 53.28263 10.29388 3627 ft 232 kts 334°
2026-04-25 21:30 53.29672 10.28200 3612 ft 224 kts 333°
2026-04-25 21:30 53.31058 10.27022 3579 ft 219 kts 333°
2026-04-25 21:30 53.32410 10.25871 3477 ft 217 kts 334°
2026-04-25 21:30 53.33303 10.25112 3402 ft 216 kts 334°
2026-04-25 21:31 53.35073 10.23608 3240 ft 216 kts 334°
2026-04-25 21:31 53.36419 10.22462 3124 ft 215 kts 334°
2026-04-25 21:31 53.37743 10.21336 3080 ft 212 kts 334°
2026-04-25 21:31 53.39031 10.20216 3071 ft 207 kts 333°
2026-04-25 21:32 53.40305 10.19078 3093 ft 214 kts 333°
2026-04-25 21:32 53.41568 10.17953 3285 ft 186 kts 333°
2026-04-25 21:32 53.42661 10.16974 3268 ft 177 kts 333°
2026-04-25 21:32 53.43769 10.15999 3296 ft 185 kts 333°
2026-04-25 21:33 53.44914 10.14989 3314 ft 191 kts 333°
2026-04-25 21:33 53.46098 10.13939 3318 ft 195 kts 333°
2026-04-25 21:33 53.47324 10.12850 3295 ft 200 kts 333°
2026-04-25 21:33 53.48561 10.11753 3269 ft 203 kts 333°
2026-04-25 21:34 53.49804 10.10647 3264 ft 203 kts 333°
2026-04-25 21:34 53.51041 10.09544 3167 ft 208 kts 333°
2026-04-25 21:34 53.52357 10.08394 2934 ft 215 kts 334°
2026-04-25 21:34 53.53655 10.07344 2696 ft 197 kts 334°
2026-04-25 21:35 53.54858 10.06440 2269 ft 185 kts 336°
2026-04-25 21:35 53.56021 10.05605 1746 ft 179 kts 335°
2026-04-25 21:35 53.57075 10.04771 1521 ft 160 kts 332°
2026-04-25 21:35 53.57947 10.04007 1297 ft 129 kts 330°
2026-04-25 21:36 53.58791 10.03259 1055 ft 144 kts 333°
2026-04-25 21:36 53.59675 10.02499 848 ft 145 kts 332°
2026-04-25 21:36 53.60543 10.01763 633 ft 136 kts 330°
2026-04-25 21:36 53.61388 10.01031 439 ft 137 kts 332°
2026-04-25 21:37 53.62248 10.00287 224 ft 140 kts 329°
2026-04-25 21:37 53.62810 9.99797 100 ft 136 kts 331°
2026-04-25 21:37 53.63750 9.98980 51 ft 79 kts 334°
2026-04-25 21:37 53.63981 9.98814 52 ft 8 kts
2026-04-25 21:38 53.63992 9.98827 52 ft 1 kts 99°
2026-04-25 21:38 53.63953 9.98908 52 ft 14 kts 128°
2026-04-25 21:38 53.63876 9.99083 51 ft 23 kts 127°
2026-04-25 21:38 53.63773 9.99322 51 ft 26 kts 124°
2026-04-25 21:39 53.63665 9.99576 51 ft 25 kts 127°
2026-04-25 21:39 53.63618 9.99683 52 ft 0 kts 124°
2026-04-25 21:39 53.63617 9.99687 52 ft 1 kts 124°
2026-04-25 21:39 53.63614 9.99693 52 ft 0 kts 124°
2026-04-25 21:40 53.63614 9.99694 52 ft 0 kts 126°
2026-04-25 21:40 53.63613 9.99696 52 ft 0 kts 126°
2026-04-25 21:40 53.63612 9.99699 52 ft 0 kts 126°
2026-04-25 21:41 53.63589 9.99752 52 ft 10 kts 127°
2026-04-25 21:42 53.63537 9.99866 52 ft 12 kts 121°
2026-04-25 21:42 53.63484 9.99996 52 ft 12 kts 127°
2026-04-25 21:42 53.63447 10.00080 53 ft 8 kts 124°
2026-04-25 21:42 53.63417 10.00154 53 ft 7 kts 134°
2026-04-25 21:43 53.63370 10.00194 53 ft 5 kts 172°
2026-04-25 21:43 53.63352 10.00233 52 ft 6 kts 82°
2026-04-25 21:43 53.63355 10.00316 53 ft 5 kts 87°
2026-04-25 21:43 53.63357 10.00352 53 ft 1 kts 86°
2026-04-25 21:44 53.63357 10.00359 53 ft 0 kts 86°